Location: Lake Zurich
(42.1970°N, 88.0930°W)
Time: 14:22:40
(UTC-06:00)

Amateur Radio Satellites - All Passes

Search period start: 29 January 2015 13:52
Search period end: 30 January 2015 13:52
Location: Lake Zurich, 42.1970°N, 88.0930°W

Satellite Date Start Highest point End Downlink Frequencies (MHz)
Time Altitude Azimuth
GONETS M04 29 Jan 14:04:03 14:10:48 25° 278° (W) 14:17:13
Gurwin Techsat 1B 29 Jan 14:11:34 14:16:41 47° 261° (W) 14:21:49 435.225
HORYU 2 29 Jan 14:15:16 14:19:44 66° 74° (ENE) 14:24:14 437.375
AO-7 29 Jan 14:24:26 14:32:29 55° 65° (ENE) 14:40:36 29.400- 29.500
RS-15 29 Jan 14:28:15 14:39:27 64° 244° (WSW) 14:51:04 29.354- 29.394
PHONESAT 2.4 29 Jan 14:29:25 14:31:34 15° 211° (SSW) 14:33:39 2401.200-2431.200
SWISSCUBE 29 Jan 14:30:56 14:34:56 26° 293° (WNW) 14:38:52 437.505
PCSat 29 Jan 14:38:57 14:42:53 20° 253° (WSW) 14:46:38 145.827
JAS-2 29 Jan 14:46:41 14:50:59 25° 66° (ENE) 14:55:15 435.910
BEESAT 29 Jan 14:47:03 14:50:38 21° 295° (WNW) 14:54:04 436.000
ITUPSAT 1 29 Jan 14:51:10 14:54:37 20° 295° (WNW) 14:57:57 437.325
ITAMSAT 1 29 Jan 14:56:13 14:58:42 13° 273° (W) 15:00:52 435.822/435.867
DANDE 29 Jan 14:56:21 15:03:11 69° 76° (ENE) 15:08:12 436.750
STARS 29 Jan 14:56:25 15:00:55 83° 106° (ESE) 15:05:20 437.465
KKS-1 29 Jan 15:03:22 15:07:47 55° 287° (WNW) 15:12:09 437.445
M-CUBED/EXP-1 PRIME 29 Jan 15:21:23 15:24:39 53° 106° (ESE) 15:28:00 437.505
CUSAT 1 29 Jan 15:24:38 15:30:47 57° 267° (W) 15:35:20 437.405
CUTE-I 29 Jan 15:41:53 15:43:48 12° 58° (ENE) 15:46:01 437.470
AUBIESAT-1 29 Jan 15:54:24 15:57:40 58° 291° (WNW) 16:01:02 437.475
HORYU 2 29 Jan 15:55:02 15:56:57 12° 272° (W) 15:58:37 437.375
O/OREOS (USA 219) 29 Jan 15:57:10 16:01:38 76° 111° (ESE) 16:06:11 437.305
AO-7 29 Jan 16:18:07 16:25:39 35° 264° (W) 16:33:03 29.400- 29.500
JAS-2 29 Jan 16:30:50 16:36:02 40° 262° (W) 16:40:55 435.910
STARS 29 Jan 16:35:33 16:36:48 11° 299° (WNW) 16:37:48 437.465
DANDE 29 Jan 16:41:36 16:45:29 16° 281° (W) 16:48:35 436.750
MOZHAYETS 4 29 Jan 16:44:08 16:48:43 73° 102° (ESE) 16:53:16
RS-15 29 Jan 16:45:06 16:50:03 13° 262° (W) 16:53:56 29.354- 29.394
Cubesat XI-IV 29 Jan 16:58:05 17:03:16 57° 72° (ENE) 17:08:32 437.490
CUTE-I 29 Jan 17:17:50 17:23:09 84° 77° (ENE) 17:28:32 437.470
SO-50 29 Jan 17:28:39 17:32:22 21° 40° (NE) 17:36:12 436.795
O/OREOS (USA 219) 29 Jan 17:39:24 17:41:43 13° 311° (NW) 17:43:52 437.305
HO-68 29 Jan 17:55:43 17:59:37 16° 53° (NE) 18:03:50 435.675
MOZHAYETS 4 29 Jan 18:23:21 18:25:26 13° 297° (WNW) 18:27:18
PRISM 29 Jan 18:30:55 18:35:05 79° 285° (WNW) 18:39:14 437.425
CUBESAT XI-V 29 Jan 18:37:31 18:42:14 85° 100° (E) 18:46:58 437.345
Cubesat XI-IV 29 Jan 18:40:04 18:43:50 19° 270° (W) 18:47:25 437.490
COMPASS 1 29 Jan 18:46:34 18:47:18 11° 63° (ENE) 18:48:17 437.405
STRAND 1 29 Jan 18:53:29 18:58:40 79° 104° (ESE) 19:03:50 437.568
CANX-2 29 Jan 18:59:20 19:02:39 23° 68° (ENE) 19:06:02 2200.000
CUTE-I 29 Jan 19:01:50 19:04:03 12° 274° (W) 19:05:56 437.470
YUBILEINY 29 Jan 19:04:36 19:13:04 61° 92° (E) 19:21:37 435.215
CINEMA 3 29 Jan 19:04:57 19:06:45 12° 61° (ENE) 19:08:49 145.822/145.860
GOMX 1 29 Jan 19:08:04 19:12:27 30° 67° (ENE) 19:17:09 467.674
SO-50 29 Jan 19:08:31 19:13:25 66° 240° (WSW) 19:18:17 436.795
AAUSAT CUBESAT 2 29 Jan 19:10:28 19:13:07 17° 66° (ENE) 19:15:54 437.432
BRITE-PL 29 Jan 19:14:18 19:19:08 47° 71° (ENE) 19:24:23 437.365/2234.400
DOVE 4 29 Jan 19:18:27 19:22:40 28° 67° (ENE) 19:27:09 437.250
CUTE 1.7 + AOD 2 29 Jan 19:22:44 19:26:39 36° 71° (ENE) 19:30:36 437.475
Oscar 11 29 Jan 19:27:42 19:29:49 14° 64° (ENE) 19:32:07 145.826/435.025
HO-68 29 Jan 19:39:13 19:46:21 77° 71° (ENE) 19:53:31 435.675
SEEDS 29 Jan 19:52:23 19:56:37 65° 75° (ENE) 20:00:51 437.485
UKube-1 29 Jan 20:02:20 20:05:22 19° 66° (ENE) 20:08:31 .
CUBEBUG 2 29 Jan 20:11:21 20:15:27 30° 69° (ENE) 20:19:38 437.445
ZACube-1 29 Jan 20:17:20 20:20:58 24° 68° (ENE) 20:24:42 437.345
CUBESAT XI-V 29 Jan 20:17:25 20:19:06 12° 298° (WNW) 20:20:32 437.345
COMPASS 1 29 Jan 20:18:16 20:22:30 77° 258° (WSW) 20:26:44 437.405
HUMSAT D 29 Jan 20:18:21 20:20:20 13° 64° (ENE) 20:22:30 437.325/437.525
DX 1 29 Jan 20:22:47 20:26:37 32° 69° (ENE) 20:30:32 434.975-435.025
FUNcube-1 29 Jan 20:28:43 20:32:42 30° 70° (ENE) 20:36:46 145.935
STRAND 1 29 Jan 20:34:28 20:37:17 14° 299° (WNW) 20:39:53 437.568
CANX-2 29 Jan 20:34:32 20:38:27 33° 264° (W) 20:42:20 2200.000
DELFI C3 29 Jan 20:36:45 20:40:46 57° 74° (ENE) 20:44:47 145.870
CINEMA 3 29 Jan 20:38:18 20:43:16 89° 60° (ENE) 20:48:21 145.822/145.860
AAUSAT CUBESAT 2 29 Jan 20:44:28 20:48:30 44° 262° (W) 20:52:32 437.432
GOMX 1 29 Jan 20:45:47 20:50:28 36° 266° (W) 20:55:23 467.674
UWE-3 29 Jan 20:49:44 20:54:21 60° 74° (ENE) 20:59:01 435.000/436.395/437.385
AISAT 29 Jan 20:50:01 20:53:35 25° 67° (ENE) 20:57:15 437.250
BRITE-PL 29 Jan 20:53:56 20:57:59 23° 271° (W) 21:02:07 437.365/2234.400
DOVE 4 29 Jan 20:55:32 21:00:16 39° 265° (W) 21:05:11 437.250
ESTCUBE 1 29 Jan 20:56:20 20:58:14 13° 63° (ENE) 21:00:22 437.505/2401.250
CUTE 1.7 + AOD 2 29 Jan 20:59:28 21:02:44 20° 268° (W) 21:05:53 437.475
Oscar 11 29 Jan 21:01:16 21:05:34 60° 259° (W) 21:09:53 145.826/435.025
YUBILEINY 29 Jan 21:03:03 21:10:33 30° 294° (WNW) 21:17:53 435.215
ISS 29 Jan 21:05:46 21:08:46 34° 138° (SE) 21:11:48 145.825
VELOX 1 29 Jan 21:17:15 21:21:28 44° 72° (ENE) 21:25:44 145.980
50 SAT 29 Jan 21:23:03 21:26:59 45° 73° (ENE) 21:30:59 437.505
CUBEBUG 1 29 Jan 21:24:59 21:28:19 22° 67° (ENE) 21:31:46 437.445
HO-68 29 Jan 21:29:48 21:34:55 20° 271° (W) 21:39:43 435.675
SEEDS 29 Jan 21:31:39 21:32:59 11° 273° (W) 21:34:02 437.485
UKube-1 29 Jan 21:37:10 21:41:17 41° 262° (W) 21:45:24 .
POLYITAN 1 29 Jan 21:44:00 21:45:46 13° 88° (E) 21:47:45 437.675
CUBEBUG 2 29 Jan 21:47:53 21:52:06 30° 265° (W) 21:56:19 437.445
HUMSAT D 29 Jan 21:51:21 21:55:40 64° 259° (WSW) 22:00:01 437.325/437.525
UNISAT 6 29 Jan 21:52:30 21:56:15 26° 94° (E) 21:59:57 437.425
ZACube-1 29 Jan 21:52:55 21:57:11 36° 264° (W) 22:01:27 437.345
AIST 1 29 Jan 21:58:49 22:03:08 62° 80° (E) 22:07:29
DX 1 29 Jan 21:59:24 22:02:57 24° 266° (W) 22:06:26 434.975-435.025
POPSAT HIP 1 29 Jan 22:02:36 22:05:46 20° 92° (E) 22:09:00 437.405
DUCHIFAT 1 29 Jan 22:04:52 22:08:06 21° 93° (E) 22:11:25 145.980
FUNcube-1 29 Jan 22:05:04 22:09:03 28° 266° (W) 22:13:00 145.935
DELFI C3 29 Jan 22:14:57 22:16:27 11° 272° (W) 22:17:44 145.870
CINEMA 3 29 Jan 22:20:17 22:21:18 10° 276° (W) 22:21:58 145.822/145.860
AISAT 29 Jan 22:26:03 22:30:05 33° 264° (W) 22:34:08 437.250
ANTELSAT 29 Jan 22:28:04 22:32:31 65° 101° (E) 22:36:50 437.575/2403.000
UWE-3 29 Jan 22:28:41 22:31:23 15° 272° (W) 22:33:51 435.000/436.395/437.385
ESTCUBE 1 29 Jan 22:30:09 22:34:38 70° 259° (W) 22:39:08 437.505/2401.250
TIGRISAT 29 Jan 22:35:28 22:39:57 77° 102° (ESE) 22:44:17 435.000
NANOSAT C BR1 29 Jan 22:38:55 22:43:07 50° 99° (E) 22:47:17 145.865
ISS 29 Jan 22:42:13 22:45:15 34° 336° (NNW) 22:48:19 145.825
SPROUT 29 Jan 22:43:24 22:47:20 36° 71° (ENE) 22:51:21 437.525
QB50P2 29 Jan 22:53:30 22:57:50 75° 102° (ESE) 23:02:07 145.880/145.840
VELOX 1 29 Jan 22:55:18 22:58:21 17° 269° (W) 23:01:15 145.980
50 SAT 29 Jan 22:59:55 23:02:24 15° 270° (W) 23:04:45 437.505
CUBEBUG 1 29 Jan 23:00:33 23:04:33 34° 264° (W) 23:08:32 437.445
QB50P1 29 Jan 23:02:38 23:06:58 88° 284° (WNW) 23:11:16 145.935-145.965
BUGSAT 1 29 Jan 23:11:11 23:15:30 89° 88° (E) 23:19:48 437.445
GONETS M04 29 Jan 23:16:00 23:20:09 15° 77° (ENE) 23:24:54
POLYITAN 1 29 Jan 23:17:54 23:22:11 59° 286° (WNW) 23:26:24 437.675
TISAT 1 29 Jan 23:18:05 23:22:20 88° 78° (ENE) 23:26:38 437.305
UNISAT 6 29 Jan 23:29:10 23:33:03 29° 291° (WNW) 23:36:47 437.425
POPSAT HIP 1 29 Jan 23:37:50 23:41:50 36° 289° (WNW) 23:45:45 437.405
AIST 1 29 Jan 23:38:50 23:40:20 11° 275° (W) 23:41:35
DUCHIFAT 1 29 Jan 23:40:09 23:44:05 35° 290° (WNW) 23:47:58 145.980
SWISSCUBE 29 Jan 23:59:59 00:04:27 42° 70° (ENE) 00:08:57 437.505
ANTELSAT 30 Jan 00:06:38 00:08:50 13° 297° (WNW) 00:10:49 437.575/2403.000
TIGRISAT 30 Jan 00:14:33 00:16:07 11° 298° (WNW) 00:17:28 435.000
BEESAT 30 Jan 00:15:27 00:20:05 55° 73° (ENE) 00:24:46 436.000
NANOSAT C BR1 30 Jan 00:15:56 00:18:38 16° 295° (WNW) 00:21:10 145.865
ITUPSAT 1 30 Jan 00:19:43 00:24:24 60° 73° (ENE) 00:29:07 437.325
ISS 30 Jan 00:20:17 00:22:27 16° 355° (N) 00:24:38 145.825
SPROUT 30 Jan 00:20:20 00:23:36 20° 268° (W) 00:26:46 437.525
KKS-1 30 Jan 00:27:33 00:30:05 15° 64° (ENE) 00:32:47 437.445
O/OREOS (USA 219) 30 Jan 00:28:16 00:31:26 18° 53° (NE) 00:34:43 437.305
QB50P2 30 Jan 00:31:47 00:33:13 11° 298° (WNW) 00:34:27 145.880/145.840
BEESAT 2 30 Jan 00:42:10 00:43:02 11° 109° (ESE) 00:44:07 435.950
BEESAT 3 30 Jan 00:53:42 00:56:19 17° 112° (ESE) 00:59:04 437.485
GONETS M04 30 Jan 01:07:00 01:15:46 80° 95° (E) 01:24:30
Oscar 19 30 Jan 01:08:09 01:13:10 50° 99° (E) 01:18:09 437.125/150
AUBIESAT-1 30 Jan 01:10:29 01:12:50 16° 63° (ENE) 01:15:11 437.475
ITAMSAT 1 30 Jan 01:26:14 01:30:32 26° 94° (E) 01:34:56 435.822/435.867
SWISSCUBE 30 Jan 01:38:54 01:42:32 21° 268° (W) 01:46:04 437.505
STARS 30 Jan 01:53:47 01:58:13 78° 75° (ENE) 02:02:42 437.465
BEESAT 30 Jan 01:55:23 01:58:22 16° 270° (W) 02:01:11 436.000
ISS 30 Jan 01:57:13 01:59:48 21° 15° (NNE) 02:02:25 145.825
ITUPSAT 1 30 Jan 02:00:02 02:02:47 15° 271° (W) 02:05:20 437.325
KKS-1 30 Jan 02:01:54 02:06:19 57° 260° (W) 02:10:46 437.445
O/OREOS (USA 219) 30 Jan 02:06:45 02:11:14 52° 252° (WSW) 02:15:41 437.305
HORYU 2 30 Jan 02:08:27 02:10:05 12° 88° (E) 02:11:57 437.375
M-CUBED/EXP-1 PRIME 30 Jan 02:10:55 02:14:58 90° 177° (S) 02:18:42 437.505
AIST 2 30 Jan 02:16:24 02:20:27 46° 118° (ESE) 02:24:37 435.215
BEESAT 2 30 Jan 02:16:36 02:20:43 74° 305° (NW) 02:24:55 435.950
DANDE 30 Jan 02:25:28 02:30:40 19° 81° (E) 02:36:27 436.750
Gurwin Techsat 1B 30 Jan 02:26:58 02:32:17 67° 101° (ESE) 02:37:35 435.225
AO-7 30 Jan 02:27:43 02:31:49 15° 86° (E) 02:36:31 29.400- 29.500
BEESAT 3 30 Jan 02:30:08 02:34:07 47° 308° (NW) 02:38:11 437.485
AUBIESAT-1 30 Jan 02:43:48 02:47:35 40° 255° (WSW) 02:51:06 437.475
RS-15 30 Jan 02:44:51 02:51:28 20° 101° (ESE) 02:58:46 29.354- 29.394
Oscar 19 30 Jan 02:48:19 02:52:13 21° 296° (WNW) 02:55:57 437.125/150
CUSAT 1 30 Jan 02:48:24 02:55:20 32° 87° (E) 03:02:32 437.405
ITAMSAT 1 30 Jan 03:05:19 03:10:12 40° 291° (WNW) 03:15:01 435.822/435.867
GONETS M04 30 Jan 03:07:00 03:13:47 23° 298° (WNW) 03:20:12
ISS 30 Jan 03:33:23 03:36:41 82° 32° (NNE) 03:40:00 145.825
PCSat 30 Jan 03:36:37 03:41:47 49° 114° (ESE) 03:47:02 145.827
JAS-2 30 Jan 03:37:55 03:42:21 23° 93° (E) 03:47:22 435.910
HORYU 2 30 Jan 03:42:52 03:47:18 64° 286° (WNW) 03:51:40 437.375
MOZHAYETS 4 30 Jan 03:46:27 03:51:02 72° 74° (ENE) 03:55:36
AIST 2 30 Jan 03:55:56 03:59:20 22° 317° (NW) 04:02:42 435.215
BEESAT 2 30 Jan 03:58:09 03:59:45 12° 325° (NW) 04:01:13 435.950
DANDE 30 Jan 04:04:50 04:13:07 84° 98° (E) 04:21:49 436.750
Gurwin Techsat 1B 30 Jan 04:08:16 04:11:47 18° 298° (WNW) 04:15:06 435.225
AO-7 30 Jan 04:17:46 04:26:09 79° 107° (ESE) 04:34:28 29.400- 29.500
CUSAT 1 30 Jan 04:29:47 04:38:00 63° 284° (WNW) 04:46:16 437.405
STRAND 1 30 Jan 04:33:25 04:36:20 16° 62° (ENE) 04:39:28 437.568
RS-15 30 Jan 04:51:25 05:02:21 83° 121° (ESE) 05:13:25 29.354- 29.394
ISS 30 Jan 05:11:23 05:12:47 12° 229° (SW) 05:14:04 145.825
YUBILEINY 30 Jan 05:14:21 05:21:49 31° 67° (ENE) 05:29:30 435.215
Cubesat XI-IV 30 Jan 05:15:36 05:19:38 22° 92° (E) 05:23:49 437.490
PCSat 30 Jan 05:20:50 05:25:29 28° 313° (NW) 05:30:05 145.827
PRISM 30 Jan 05:21:50 05:25:57 82° 75° (ENE) 05:30:05 437.425
JAS-2 30 Jan 05:22:14 05:27:45 54° 288° (WNW) 05:33:54 435.910
MOZHAYETS 4 30 Jan 05:27:16 05:28:52 11° 273° (W) 05:30:12
CUTE-I 30 Jan 05:34:50 05:39:35 32° 95° (E) 05:44:25 437.470
CUBESAT XI-V 30 Jan 05:41:23 05:45:59 86° 72° (ENE) 05:50:38 437.345
DANDE 30 Jan 05:50:50 05:57:41 25° 299° (WNW) 06:04:20 436.750
STRAND 1 30 Jan 06:09:57 06:15:02 70° 257° (WSW) 06:20:10 437.568
AO-7 30 Jan 06:11:38 06:18:13 26° 305° (NW) 06:24:32 29.400- 29.500
CUSAT 1 30 Jan 06:18:09 06:22:51 15° 305° (NW) 06:26:58 437.405
Cubesat XI-IV 30 Jan 06:54:52 07:00:04 49° 289° (WNW) 07:05:13 437.490
RS-15 30 Jan 07:06:20 07:16:08 35° 328° (NNW) 07:26:00 29.354- 29.394
HO-68 30 Jan 07:09:20 07:11:59 13° 85° (E) 07:15:09 435.675
YUBILEINY 30 Jan 07:10:40 07:19:17 61° 268° (W) 07:27:51 435.215
CUTE-I 30 Jan 07:14:51 07:19:41 34° 292° (WNW) 07:24:28 437.470
BRITE-PL 30 Jan 07:19:59 07:23:29 17° 87° (E) 07:27:08 437.365/2234.400
PHONESAT 2.4 30 Jan 07:22:15 07:22:48 10° 146° (SSE) 07:23:28 2401.200-2431.200
SEEDS 30 Jan 07:39:38 07:40:06 10° 87° (E) 07:40:51 437.485
VERMONT LUNAR 30 Jan 07:52:48 07:55:42 25° 156° (SSE) 07:58:38 437.305
COMPASS 1 30 Jan 08:02:52 08:05:27 16° 91° (E) 08:08:10 437.405
CANX-2 30 Jan 08:19:17 08:23:15 39° 97° (E) 08:27:13 2200.000
AAUSAT CUBESAT 2 30 Jan 08:27:39 08:31:11 27° 95° (E) 08:34:44 437.432
CINEMA 3 30 Jan 08:34:13 08:37:52 22° 91° (E) 08:41:31 145.822/145.860
POLYITAN 1 30 Jan 08:38:50 08:40:13 12° 62° (ENE) 08:41:49 437.675
UWE-3 30 Jan 08:42:04 08:43:29 12° 86° (E) 08:45:08 435.000/436.395/437.385
CUTE 1.7 + AOD 2 30 Jan 08:43:07 08:47:21 67° 101° (E) 08:51:32 437.475
GOMX 1 30 Jan 08:46:58 08:52:25 74° 101° (E) 08:57:35 467.674
Oscar 11 30 Jan 08:48:48 08:52:12 23° 93° (E) 08:55:41 145.826/435.025
UNISAT 6 30 Jan 08:51:55 08:55:53 28° 68° (ENE) 08:59:53 437.425
HO-68 30 Jan 08:53:50 09:01:02 77° 104° (ESE) 09:08:13 435.675
DOVE 4 30 Jan 08:54:18 08:59:29 63° 100° (E) 09:04:23 437.250
POPSAT HIP 1 30 Jan 08:56:44 08:59:30 18° 66° (ENE) 09:02:26 437.405
BRITE-PL 30 Jan 08:56:57 09:02:37 68° 286° (WNW) 09:08:01 437.365/2234.400
PHONESAT 2.4 30 Jan 08:57:27 09:00:47 36° 161° (SSE) 09:04:09 2401.200-2431.200
DUCHIFAT 1 30 Jan 08:58:40 09:01:31 18° 66° (ENE) 09:04:30 145.980
BEESAT 2 30 Jan 08:59:35 09:01:18 12° 36° (NE) 09:03:09 435.950
BEESAT 3 30 Jan 09:11:57 09:14:37 16° 40° (NE) 09:17:20 437.485
SEEDS 30 Jan 09:12:19 09:16:30 67° 285° (WNW) 09:20:39 437.485
SO-50 30 Jan 09:23:46 09:27:56 36° 116° (ESE) 09:32:15 436.795
UKube-1 30 Jan 09:24:29 09:28:21 30° 96° (E) 09:32:14 .
RS-15 30 Jan 09:24:55 09:33:02 22° 2° (N) 09:41:21 29.354- 29.394
ANTELSAT 30 Jan 09:27:11 09:31:51 63° 74° (ENE) 09:36:30 437.575/2403.000
VERMONT LUNAR 30 Jan 09:30:03 09:33:30 60° 172° (S) 09:36:58 437.305
NANOSAT C BR1 30 Jan 09:32:12 09:36:11 40° 71° (ENE) 09:40:14 145.865
TIGRISAT 30 Jan 09:34:14 09:38:56 72° 75° (ENE) 09:43:38 435.000
HUMSAT D 30 Jan 09:36:22 09:39:27 20° 92° (E) 09:42:36 437.325/437.525
COMPASS 1 30 Jan 09:37:29 09:41:26 41° 288° (WNW) 09:45:20 437.405
CUBEBUG 2 30 Jan 09:38:27 09:42:58 57° 100° (E) 09:47:19 437.445
ZACube-1 30 Jan 09:41:18 09:45:31 42° 97° (E) 09:49:37 437.345
DX 1 30 Jan 09:46:18 09:50:39 55° 100° (E) 09:54:59 434.975-435.025
QB50P2 30 Jan 09:46:55 09:51:08 60° 74° (ENE) 09:55:23 145.880/145.840
DELFI C3 30 Jan 09:51:38 09:55:43 85° 280° (W) 09:59:44 145.870
FUNcube-1 30 Jan 09:52:47 09:57:09 56° 100° (E) 10:01:22 145.935
QB50P1 30 Jan 09:55:47 10:00:03 74° 76° (ENE) 10:04:22 145.935-145.965
CANX-2 30 Jan 09:55:57 09:58:58 19° 293° (WNW) 10:01:52 2200.000
BUGSAT 1 30 Jan 10:01:49 10:05:53 66° 74° (ENE) 10:10:02 437.445
AAUSAT CUBESAT 2 30 Jan 10:03:20 10:06:48 25° 291° (WNW) 10:10:11 437.432
CINEMA 3 30 Jan 10:10:45 10:15:19 40° 289° (WNW) 10:19:38 145.822/145.860
POLYITAN 1 30 Jan 10:11:20 10:15:37 73° 257° (WSW) 10:19:59 437.675
UWE-3 30 Jan 10:16:09 10:20:39 66° 286° (WNW) 10:24:58 435.000/436.395/437.385
AISAT 30 Jan 10:16:11 10:20:31 45° 98° (E) 10:24:51 437.250
CUTE 1.7 + AOD 2 30 Jan 10:21:07 10:22:48 12° 297° (WNW) 10:24:16 437.475
ESTCUBE 1 30 Jan 10:23:04 10:26:41 24° 93° (E) 10:30:23 437.505/2401.250
Oscar 11 30 Jan 10:24:37 10:28:28 32° 290° (WNW) 10:32:15 145.826/435.025
GOMX 1 30 Jan 10:26:31 10:29:55 17° 298° (WNW) 10:33:02 467.674
UNISAT 6 30 Jan 10:28:22 10:32:36 32° 264° (W) 10:36:47 437.425
AIST 1 30 Jan 10:29:11 10:33:02 35° 92° (E) 10:36:56
POPSAT HIP 1 30 Jan 10:31:00 10:35:07 44° 261° (W) 10:39:16 437.405
DUCHIFAT 1 30 Jan 10:33:01 10:37:06 43° 262° (W) 10:41:12 145.980
DOVE 4 30 Jan 10:33:15 10:36:44 18° 297° (WNW) 10:39:56 437.250
PHONESAT 2.4 30 Jan 10:35:32 10:39:09 67° 177° (S) 10:42:46 2401.200-2431.200
BEESAT 2 30 Jan 10:36:04 10:40:17 80° 55° (NE) 10:44:25 435.950
50 SAT 30 Jan 10:36:58 10:41:02 73° 102° (ESE) 10:45:01 437.505
AIST 2 30 Jan 10:37:55 10:41:55 37° 49° (NE) 10:45:53 435.215
BRITE-PL 30 Jan 10:38:42 10:40:08 11° 303° (WNW) 10:41:14 437.365/2234.400
HO-68 30 Jan 10:42:45 10:48:07 23° 302° (WNW) 10:53:17 435.675
VELOX 1 30 Jan 10:43:43 10:48:15 86° 103° (ESE) 10:52:44 145.980
CUBEBUG 1 30 Jan 10:48:43 10:52:56 40° 98° (E) 10:57:09 437.445
BEESAT 3 30 Jan 10:49:05 10:53:13 66° 240° (WSW) 10:57:17 437.485
Oscar 19 30 Jan 10:50:56 10:51:57 11° 58° (ENE) 10:53:15 437.125/150
UKube-1 30 Jan 11:00:48 11:04:25 25° 293° (WNW) 11:07:57 .
TISAT 1 30 Jan 11:04:11 11:06:20 14° 89° (E) 11:08:41 437.305
SO-50 30 Jan 11:04:27 11:08:33 30° 315° (NW) 11:12:44 436.795
ANTELSAT 30 Jan 11:06:33 11:09:08 14° 271° (W) 11:11:29 437.575/2403.000
VERMONT LUNAR 30 Jan 11:08:02 11:11:29 58° 189° (S) 11:14:57 437.305
NANOSAT C BR1 30 Jan 11:09:15 11:12:17 18° 268° (W) 11:15:12 145.865
HUMSAT D 30 Jan 11:11:31 11:15:24 35° 289° (WNW) 11:19:11 437.325/437.525
TIGRISAT 30 Jan 11:14:19 11:16:16 12° 273° (W) 11:17:58 435.000
CUBEBUG 2 30 Jan 11:16:30 11:19:13 15° 297° (WNW) 11:21:44 437.445
GONETS M04 30 Jan 11:16:56 11:24:57 40° 71° (ENE) 11:33:03
ZACube-1 30 Jan 11:18:27 11:21:37 19° 294° (WNW) 11:24:36 437.345
DX 1 30 Jan 11:23:53 11:26:31 15° 296° (WNW) 11:28:59 434.975-435.025
QB50P2 30 Jan 11:25:38 11:27:32 12° 272° (W) 11:29:13 145.880/145.840
FUNcube-1 30 Jan 11:30:31 11:33:04 15° 296° (WNW) 11:35:26 145.935
RS-15 30 Jan 11:39:40 11:49:49 38° 35° (NE) 12:00:31 29.354- 29.394
BUGSAT 1 30 Jan 11:41:12 11:41:57 10° 273° (W) 11:42:26 437.445
AISAT 30 Jan 11:53:37 11:56:52 19° 295° (WNW) 11:59:58 437.250
ESTCUBE 1 30 Jan 11:59:33 12:03:40 34° 290° (WNW) 12:07:43 437.505/2401.250
SWISSCUBE 30 Jan 12:03:25 12:03:29 10° 86° (E) 12:03:53 437.505
SPROUT 30 Jan 12:05:18 12:09:40 69° 102° (ESE) 12:14:00 437.525
AIST 1 30 Jan 12:07:44 12:10:52 19° 290° (WNW) 12:13:55
Gurwin Techsat 1B 30 Jan 12:11:34 12:14:30 16° 61° (ENE) 12:17:39 435.225
PHONESAT 2.4 30 Jan 12:14:03 12:17:34 48° 194° (SSW) 12:21:06 2401.200-2431.200
50 SAT 30 Jan 12:14:57 12:15:37 10° 297° (WNW) 12:16:05 437.505
AIST 2 30 Jan 12:16:55 12:20:22 23° 247° (WSW) 12:23:42 435.215
BEESAT 30 Jan 12:16:58 12:19:16 14° 89° (E) 12:21:48 436.000
ITUPSAT 1 30 Jan 12:21:21 12:24:00 15° 89° (E) 12:26:51 437.325
VELOX 1 30 Jan 12:23:07 12:24:14 11° 299° (WNW) 12:25:05 145.980
PCSat 30 Jan 12:23:56 12:29:07 44° 53° (NE) 12:34:18 145.827
Oscar 19 30 Jan 12:25:20 12:30:32 77° 75° (ENE) 12:35:45 437.125/150
CUBEBUG 1 30 Jan 12:25:46 12:29:04 20° 294° (WNW) 12:32:17 437.445
TISAT 1 30 Jan 12:38:21 12:42:34 53° 287° (WNW) 12:46:44 437.305
ITAMSAT 1 30 Jan 12:44:34 12:49:24 42° 70° (ENE) 12:54:18 435.822/435.867
VERMONT LUNAR 30 Jan 12:46:24 12:49:17 24° 205° (SSW) 12:52:09 437.305
HORYU 2 30 Jan 13:07:40 13:09:51 14° 63° (ENE) 13:12:12 437.375
DANDE 30 Jan 13:10:07 13:11:57 11° 49° (NE) 13:14:01 436.750
GONETS M04 30 Jan 13:13:47 13:21:56 46° 271° (W) 13:29:59
AO-7 30 Jan 13:26:47 13:33:14 27° 55° (NE) 13:39:54 29.400- 29.500
CUSAT 1 30 Jan 13:31:03 13:35:02 18° 57° (ENE) 13:38:34 437.405
SWISSCUBE 30 Jan 13:37:18 13:42:07 85° 285° (WNW) 13:46:54 437.505
SPROUT 30 Jan 13:43:22 13:45:16 12° 297° (WNW) 13:46:58 437.525
STARS 30 Jan 13:44:59 13:47:14 14° 89° (E) 13:49:41 437.465
